Location: Grieser Field
(39.7333°N, 81.7975°W)
Time: 14:35:37
(UTC-04:00)

Daily predictions for brighter satellites

Satellite Brightness Start Highest point End
(mag) Time Altitude Azimuth Time Altitude Azimuth Time Altitude Azimuth
ATLAS CENTAUR R/B 3.3 19:25:48 10° SSW 19:30:10 72° SE 19:43:43 10° NE
USA 215 4.2 19:26:23 10° ENE 19:31:49 27° SE 19:37:12 10° S
Cosmos 1484 Rocket 2.7 19:31:05 10° SSE 19:34:55 72° ENE 19:38:51 10° N
Cosmos 724 4.4 19:31:02 10° SSW 19:36:49 60° ESE 19:42:47 10° NE
SAR-Lupe-4 3.9 19:34:03 10° SE 19:37:26 43° ENE 19:40:51 10° N
OAO 3 Rocket 3.8 19:37:22 10° WSW 19:41:53 47° S 19:46:29 10° ESE
Cosmos 1758 3.7 19:39:45 10° SSE 19:43:36 42° E 19:47:29 10° NNE
Cosmos 1464 Rocket 4.0 19:38:15 10° S 19:44:26 70° E 19:50:34 10° NNE
Cosmos 2034 Rocket 4.2 19:38:39 10° SSE 19:44:40 51° E 19:50:47 10° NNE
SL-16 R/B 3.1 19:42:27 10° SW 19:48:00 55° WNW 19:53:37 10° NNE
Cosmos 1378 3.4 19:45:46 10° NNW 19:49:29 73° W 19:53:12 10° S
Cosmos 1408 Rocket 3.5 19:45:50 10° N 19:50:09 62° E 19:54:25 10° SSE
SKYMED 2 4.0 19:46:35 10° N 19:50:55 67° WNW 19:55:13 10° SSW
Meteor 1-21 Rocket 4.4 19:50:20 10° N 19:55:43 50° ENE 20:01:04 10° SSE
Cosmos 1766 4.1 19:52:08 10° SSW 19:56:02 56° W 19:59:58 10° N
Spot 1 4.4 19:55:26 10° SE 19:59:55 48° ENE 20:04:11 10° N
Helios 1A 3.6 19:56:34 10° SE 20:00:23 35° ENE 20:04:13 10° N
Meteor 1-28 Rocket 3.1 20:04:38 10° NNE 20:08:23 89° WNW 20:12:05 10° SSW
Meteor 1-29 3.6 20:06:48 10° NNE 20:10:02 34° E 20:13:14 10° SSE
GPS 2-04 Rocket1 3.2 20:10:10 10° WSW 20:13:23 36° S 20:15:05 22° ESE
NOAA 12 4.2 20:10:55 10° SSE 20:16:11 83° WSW 20:21:30 10° NNW
H-2A R/B 3.9 20:17:06 23° E 20:17:50 24° ENE 20:20:58 10° NNE
ASTEX 1 3.9 20:13:42 10° NNE 20:18:13 36° E 20:22:42 10° SSE
Cosmos 1943 Rocket 3.6 20:16:03 10° N 20:19:52 18° NE 20:21:11 17° ENE
Resurs 1-3 3.7 20:16:43 10° SSE 20:20:58 53° ENE 20:25:16 10° N
Cosmos 1743 Rocket 3.5 20:16:34 10° N 20:20:59 64° E 20:25:19 10° SSE
Cosmos 1452 Rocket 4.1 20:15:51 10° NNW 20:21:01 60° WSW 20:26:10 10° S
Cosmos 1805 3.7 20:17:45 10° SSW 20:21:39 64° W 20:25:34 10° N
ALOS 2.7 20:20:14 14° SE 20:23:55 41° ENE 20:28:19 10° N
Cosmos 2251 Rocket 4.4 20:21:42 10° SSE 20:25:56 26° E 20:30:11 10° NE
Cosmos 2369 Rocket 2.5 20:22:27 10° N 20:27:53 44° ENE 20:31:02 23° ESE
Cosmos 1943 3.3 20:23:01 10° S 20:28:28 52° ESE 20:33:55 10° NNE
Resurs 01 Rocket 1.5 20:24:37 10° SSE 20:29:04 85° ENE 20:33:33 10° NNW
Helios 1B rocket 2.3 20:26:04 10° NNE 20:30:12 83° ESE 20:34:19 10° SSW
CENTAUR R/B 2.4 20:24:54 10° SSW 20:30:46 63° ESE 20:37:23 10° NE
SL-8 R/B 4.0 20:26:06 10° WSW 20:30:52 66° NNW 20:34:18 19° NE
Gbstr 26 Del rocket 3.1 20:28:33 10° SW 20:32:52 74° SE 20:36:27 20° ENE
Cosmos 1953 3.6 20:31:32 10° SSW 20:35:20 42° W 20:39:08 10° N
Cosmos 1603 4.3 20:30:08 10° SW 20:35:47 59° WNW 20:41:29 10° NNE
ISS -2.6 20:33:04 10° WSW 20:36:15 50° NNW 20:37:47 26° NNE
BREEZE-M DEB (TANK) 4.2 20:24:18 10° W 20:38:48 54° N 20:41:39 25° ENE
Cosmos 1733 3.1 20:36:09 10° S 20:39:58 62° E 20:43:48 10° NNE
Cosmos 1420 Rocket 4.2 20:34:55 10° NNW 20:40:14 74° WSW 20:45:31 10° S
ERBS 4.5 20:42:32 10° N 20:44:31 17° NNE 20:44:31 17° NNE
Cosmos 1470 2.7 20:43:15 10° S 20:47:07 85° W 20:51:02 10° N
Nadezhda 4 Rocket 4.1 20:42:16 10° N 20:48:32 76° W 20:54:42 10° S
Cosmos 1674 2.7 20:44:51 10° N 20:48:45 80° W 20:51:28 19° S
Cosmos 2279 Rocket 4.5 20:48:01 33° ESE 20:49:02 35° E 20:54:35 10° NNE
GP-B 3.2 20:48:23 10° NNE 20:52:45 52° E 20:52:57 52° E
Spot 2 Rocket 4.1 20:48:06 10° S 20:53:02 56° W 20:58:00 10° NNW
Cosmos 2058 4.4 20:49:45 10° NNE 20:51:47 23° NNE 20:51:47 23° NNE
Abrixas 4.2 20:53:11 10° W 20:55:49 27° NNW 20:56:04 27° N
Cosmos 1092 Rocket 3.9 20:52:21 10° N 20:58:35 86° W 21:04:43 10° S
Cosmos 2151 2.9 20:57:43 10° N 21:01:36 63° NE 21:01:36 63° NE
ATLAS 5 CENTAUR R/B 4.3 20:58:39 10° W 21:02:22 21° NW 21:06:19 10° N
Envisat 4.4 21:05:37 24° NE 21:05:37 24° NE 21:08:21 10° N
Cosmos 2142 Rocket 4.4 21:00:27 10° S 21:06:48 82° E 21:13:14 10° N
Meteor 2-1 Rocket 4.3 21:08:30 52° E 21:08:30 52° E 21:14:11 10° NNE
Cosmos 1655 Rocket 4.0 21:02:49 10° N 21:08:57 57° E 21:10:09 49° ESE
Cosmos 2026 Rocket 3.9 21:03:30 10° N 21:09:35 65° E 21:11:21 45° SE
Cosmos 158 Rocket 4.1 21:05:12 10° SSW 21:10:02 68° WNW 21:14:56 10° NNE
Meteor 1-16 Rocket 3.9 21:05:42 10° S 21:10:58 74° E 21:16:17 10° NNE
Cosmos 1634 Rocket 4.0 21:07:34 10° S 21:13:49 83° W 21:20:04 10° N
USA 215 3.3 21:09:20 14° NE 21:15:11 78° NW 21:21:42 10° SW
Meteor 1-11 4.1 21:18:42 10° N 21:24:31 83° E 21:25:15 69° SSE
ERS-1 Rocket 4.0 21:35:49 37° N 21:35:49 37° N 21:38:55 10° N
Cosmos 1943 Rocket 2.9 21:58:35 10° NNW 22:02:44 49° NW 22:02:44 49° NW
Cosmos 2369 Rocket 4.0 22:07:05 10° NW 22:11:36 25° WSW 22:12:52 23° WSW
CENTAUR R/B 4.3 22:16:39 10° W 22:21:58 28° NW 22:27:52 10° NNE
